User: anonymous   Login
Location: Unspecified
(0.0000°N, 0.0000°E)
Time: 08:13:02
(UTC+00:00)
Language:

CAS-4B - Orbit

View from above orbital plane
View from above orbital plane
View from above satellite
View from above satellite

Ground track
Ground track

The orbit data is extracted from the following two-line orbital elements,

1 42759U 17034B   18351.16000000  .00000008  00000-0  14015-4 0  9990
2 42759  43.0174 158.6667 0009712 180.6378 158.3157 15.09442235 83094
Epoch (UTC): 17 December 2018 03:50:24
Eccentricity: 0.0009712
inclination: 43.0174°
perigee height: 531 km
apogee height: 544 km
right ascension of ascending node: 158.6667°
argument of perigee: 180.6378°
revolutions per day: 15.09442235
mean anomaly at epoch: 158.3157°
orbit number at epoch: 8309

The dashed part of the orbit path shows where the satellite is in the earth's shadow,  

DLR